This demonstration page uses our WeatherBlox Daily Observations layout. Learn more.

Left ArrowRight Arrow

Hourly Observations for June 9, 2018

Temp ( °F °C ) Dew Point ( °F °C ) Humidity (%) Winds ( mph kmh ) Pressure ( in mb ) Visibility ( mi km ) Precip ( " mm )
12:53 am 00:53 Clear 76 24.4 67 19.4 74 74 S 8 13 29.90 1013 10 16 0.00 0.00
1:53 am 01:53 Clear 75 23.9 67 19.4 76 76 S 5 7 29.91 1013 10 16 0.00 0.00
2:44 am 02:44 Cloudy with Nearby Thunderstorms 67 19.4 58 14.4 73 73 N 24 39 30.03 1017 10 16 0.00 0.00
2:51 am 02:51 Windy with Storms Likely 66 19 59 15 78 78 N 26 43 30.06 1018 9 14 0.00 0.03
2:53 am 02:53 Windy with Storms Likely 65 18.3 59 15 81 81 N 23 37 30.03 1017 7 11 0.03 0.76
3:45 am 03:45 Partly Cloudy with Nearby Thunderstorms 63 17.2 61 16.1 93 93 ENE 13 20 29.97 1015 10 16 0.27 6.86
3:53 am 03:53 Mostly Clear with Nearby Thunderstorms 63 17.2 61 16.1 93 93 ENE 13 20 29.94 1014 10 16 0.27 6.86
4:04 am 04:04 Mostly Clear 63 17 61 16 94 94 ENE 12 19 29.97 1015 10 16 0.00 0.00
4:53 am 04:53 Clear 63 17.2 61 16.1 93 93 ESE 13 20 29.96 1015 10 16 0.00 0.03
5:53 am 05:53 Clear 64 17.8 61 16.1 90 90 SSE 13 20 29.94 1014 10 16 0.00 0.00
6:53 am 06:53 Sunny 65 18.3 61 16.1 87 87 S 15 24 29.91 1013 10 16 0.00 0.00
7:53 am 07:53 Sunny 67 19.4 61 16.1 81 81 S 14 22 29.91 1013 10 16 0.00 0.00
8:53 am 08:53 Sunny 71 21.7 61 16.1 71 71 S 14 22 29.89 1012 10 16 0.00 0.00
9:53 am 09:53 Sunny 76 24.4 64 17.8 67 67 S 16 26 29.86 1011 10 16 0.00 0.00
10:53 am 10:53 Sunny 79 26.1 67 19.4 67 67 SSW 18 30 29.86 1011 10 16 0.00 0.00
11:53 am 11:53 Sunny 81 27.2 68 20 65 65 SSW 15 24 29.87 1012 10 16 0.00 0.00
12:53 pm 12:53 Sunny 82 27.8 69 20.6 65 65 SSW 10 17 29.87 1011 10 16 0.00 0.00
1:53 pm 13:53 Sunny 86 30 70 21.1 59 59 SW 7 11 29.84 1010 10 16 0.00 0.00
2:53 pm 14:53 Sunny 88 31.1 71 21.7 57 57 S 6 9 29.83 1010 10 16 0.00 0.00
3:53 pm 15:53 Sunny 89 31.7 70 21.1 53 53 SSE 8 13 29.82 1010 10 16 0.00 0.00
4:53 pm 16:53 Sunny 90 32.2 69 20.6 50 50 SE 7 11 29.81 1009 10 16 0.00 0.00
5:53 pm 17:53 Sunny 91 32.8 68 20 47 47 ESE 8 13 29.79 1009 10 16 0.00 0.00
6:53 pm 18:53 Sunny 90 32.2 69 20.6 50 50 ESE 12 19 29.78 1008 10 16 0.00 0.00
7:53 pm 19:53 Sunny 88 31.1 69 20.6 54 54 E 8 13 29.77 1008 10 16 0.00 0.00
8:53 pm 20:53 Sunny 84 28.9 70 21.1 63 63 E 13 20 29.76 1008 10 16 0.00 0.00
9:53 pm 21:53 Clear 81 27.2 70 21.1 69 69 E 12 19 29.76 1008 10 16 0.00 0.00
10:53 pm 22:53 Clear 79 26.1 70 21.1 74 74 E 8 13 29.76 1008 10 16 0.00 0.00
11:53 pm 23:53 Mostly Clear 79 26.1 69 20.6 72 72 ESE 15 24 29.72 1007 10 16 0.00 0.00

Powered by AerisWeather